[[{"header":{"parameterUnit":"m.s-1","parameterCategory":1,"la1":30.2991,"la2":30.254,"lo1":-89.0895,"lo2":-89.0444,"dy":0.0017,"dx":0.0017,"nx":28,"ny":28,"refTime":"2024-02-05T09:00:00:Z","depth":0,"parameterNumber":2,"parameterNumberName":"U-component_of_WINDS"},"data":[0,0,0,0,0,0,0,0,0,0,0,0,0,0,0,0,0,0,0,0,0,0,0,0,0,0,0,0,0,0,0,0,0,0,0,0,0,0,0,0,0,0,0,0,0,0,0,0,0,0,0,0,0,0,0,0,0,0,0.4579,0.4579,0,0.4528,0.4527,0.4526,0.4508,0.4509,0.4509,0.4509,0.4453,0.4451,0.4449,0,0,0,0,0,0,0,0,0,0,0,0,0,0.466,0.4658,0.4579,0.4579,0.4578,0.4528,0.4527,0.4526,0.4508,0.4509,0.4509,0.4509,0.4453,0.4451,0.4449,0,0,0,0,0,0,0,0,0,0,0,0,0,0.4618,0.4658,0.4579,0.4563,0.4561,0.4528,0.4527,0.4526,0.4508,0.4509,0.4509,0.4509,0.4454,0.4451,0.4449,0.4427,0,0,0.4441,0.444,0,0,0,0,0,0,0,0,0.462,0.4615,0.4566,0.4564,0.4562,0.4525,0.4535,0.4493,0.4508,0.4528,0.4509,0.4509,0.4476,0.4472,0.4461,0.4424,0.4422,0.4441,0.4439,0.4438,0.4438,0,0,0,0,0,0,0,0.4623,0.4617,0.4559,0.4565,0.4563,0.4557,0.4552,0.4527,0.4501,0.4527,0.4525,0.4519,0.4475,0.4464,0.446,0.4421,0.4441,0.4439,0.4437,0.4436,0.4363,0.4363,0,0,0,0,0,0,0.4629,0.462,0.456,0.4557,0.4593,0.4556,0.4549,0.4536,0.4501,0.4496,0.4519,0.4519,0.4468,0.4463,0.4458,0.443,0.4438,0.4436,0.4435,0.4364,0.4363,0.4363,0,0,0,0,0,0,0.4631,0.4624,0.4562,0.4588,0.458,0.4554,0.4539,0.4535,0.4524,0.4496,0.4491,0.4513,0.4468,0.4461,0.4435,0.4427,0.4435,0.4433,0.4364,0.4364,0.4363,0.4373,0,0,0,0,0,0,0.4634,0.4625,0.4617,0.4588,0.4579,0.4541,0.4539,0.4534,0.452,0.4519,0.4488,0.4483,0.4468,0.4439,0.4432,0.4424,0.4431,0.4365,0.4364,0.4363,0.4373,0.4373,0.4373,0,0,0,0,0,0.4637,0.4621,0.4617,0.461,0.4568,0.4541,0.4535,0.4519,0.4519,0.4511,0.4493,0.4484,0.443,0.4436,0.4429,0.442,0.4365,0.4364,0.4363,0.4373,0.4373,0.4373,0,0,0,0,0,0,0.4649,0.4617,0.4612,0.4587,0.4567,0.4538,0.4527,0.4519,0.4497,0.4497,0.4476,0.4469,0.4444,0.4429,0.4438,0.4396,0.4397,0.4394,0.4407,0.4406,0.4406,0.441,0.4428,0,0,0,0,0,0.4649,0.4631,0.4604,0.4584,0.4575,0.4553,0.454,0.4529,0.4507,0.4498,0.4478,0.4456,0.4434,0.4419,0.4397,0.4371,0.4364,0.4361,0.4361,0.4361,0.4359,0.4343,0.4342,0.436,0.436,0.436,0,0,0.4649,0.4629,0.4618,0.4586,0.4569,0.455,0.4545,0.4525,0.451,0.4494,0.4468,0.4453,0.4427,0.4401,0.4388,0.4387,0.4352,0.436,0.436,0.4357,0.4342,0.4341,0.4339,0.4359,0.4359,0.4359,0,0,0.4638,0.4622,0.4604,0.4587,0.4562,0.4547,0.4543,0.4516,0.4505,0.4479,0.4467,0.4448,0.4411,0.4393,0.4378,0.4361,0.4352,0.4355,0.4352,0.4338,0.4336,0.4335,0.4328,0.4326,0.4353,0.4353,0.4353,0,0.464,0.4611,0.4595,0.4575,0.4561,0.4548,0.4529,0.4513,0.4482,0.4472,0.4472,0.4424,0.4406,0.4375,0.4371,0.436,0.4354,0.4358,0.4338,0.4336,0.4335,0.4328,0.4326,0.4353,0.4353,0.4353,0.4353,0,0.4615,0.4595,0.4583,0.4554,0.4539,0.452,0.45,0.4486,0.4477,0.4462,0.4435,0.4413,0.4386,0.4378,0.4368,0.4345,0.4346,0.4342,0.4342,0.4334,0.4327,0.4325,0.4354,0.4354,0.4353,0.4353,0,0,0.4609,0.4573,0.4569,0.4555,0.4527,0.4511,0.4491,0.4466,0.4454,0.4433,0.4415,0.4383,0.438,0.4364,0.4352,0.4339,0.4327,0.4337,0.4336,0.4335,0.43,0.4302,0.43,0.4321,0.4321,0.432,0.4302,0,0.4594,0.4559,0.4544,0.4515,0.4496,0.4483,0.4466,0.4446,0.4432,0.4412,0.4396,0.4374,0.4372,0.4362,0.4349,0.4331,0.4319,0.4332,0.4303,0.4302,0.4309,0.4296,0.4299,0.4282,0.4299,0.4299,0.4298,0,0.4572,0.4552,0.4521,0.4495,0.4487,0.4471,0.4447,0.4429,0.4406,0.4397,0.4379,0.4368,0.4346,0.4348,0.4316,0.4325,0.4312,0.4302,0.4301,0.4297,0.4299,0.4291,0.4277,0.4274,0.4294,0.4295,0.4295,0,0.457,0.4536,0.4513,0.4502,0.4471,0.4461,0.4447,0.4425,0.441,0.4389,0.4379,0.4355,0.4342,0.4323,0.4305,0.4308,0.4275,0.4276,0.4265,0.4266,0.4258,0.4259,0.4241,0.4251,0.4252,0.4252,0.4252,0,0.4555,0.4536,0.4512,0.4498,0.4476,0.4459,0.4439,0.4424,0.4404,0.4386,0.4374,0.4357,0.4335,0.4315,0.4301,0.4277,0.4271,0.4262,0.4258,0.4262,0.4263,0.4253,0.4253,0.4251,0.4251,0.4251,0.4251,0,0.4549,0.4532,0.4506,0.448,0.4473,0.4458,0.4435,0.442,0.4406,0.4383,0.4377,0.4354,0.433,0.431,0.4279,0.4269,0.4244,0.424,0.4252,0.425,0.424,0.4241,0.4215,0.421,0.4224,0.4224,0.4224,0,0.454,0.4526,0.4498,0.4485,0.4472,0.4453,0.4438,0.4421,0.4406,0.4379,0.4368,0.4343,0.4323,0.4285,0.4265,0.424,0.4235,0.4228,0.4232,0.4236,0.4234,0.4235,0.4233,0.4227,0.4227,0.4227,0.4227,0,0.4525,0.4517,0.4498,0.4476,0.4459,0.444,0.4421,0.4412,0.439,0.4375,0.4351,0.4335,0.4303,0.4279,0.4253,0.4237,0.4228,0.4226,0.4222,0.4226,0.4233,0.4229,0.425,0.4227,0.4227,0.4227,0.4227,0.4227,0.4517,0.4503,0.4482,0.446,0.4444,0.4427,0.4412,0.4396,0.4376,0.4349,0.434,0.4315,0.4292,0.4257,0.4242,0.4221,0.422,0.4215,0.4214,0.4212,0.4213,0.4238,0.4216,0.4216,0.4216,0.4216,0.4216,0,0.45,0.4486,0.4467,0.4441,0.4424,0.4418,0.4397,0.4383,0.4361,0.4341,0.4322,0.4294,0.427,0.4249,0.4224,0.4212,0.4207,0.4205,0.4206,0.4202,0.4215,0.4221,0.421,0.421,0.421,0.421,0.421,0.421,0.449,0.4467,0.4457,0.4426,0.4411,0.4388,0.4376,0.4359,0.4343,0.4313,0.4294,0.428,0.4259,0.4233,0.421,0.4205,0.4196,0.4195,0.4188,0.4201,0.4201,0.4202,0.4207,0.4194,0.4194,0.4177,0.4177,0.4177]},{"header":{"parameterUnit":"m.s-1","parameterCategory":1,"la1":30.2991,"la2":30.254,"lo1":-89.0895,"lo2":-89.0444,"dy":0.0017,"dx":0.0017,"nx":28,"ny":28,"refTime":"2024-02-05T09:00:00:Z","depth":0,"parameterNumber":3,"parameterNumberName":"V-component_of_WINDS"},"data":[0,0,0,0,0,0,0,0,0,0,0,0,0,0,0,0,0,0,0,0,0,0,0,0,0,0,0,0,0,0,0,0,0,0,0,0,0,0,0,0,0,0,0,0,0,0,0,0,0,0,0,0,0,0,0,0,0,0,-5.8165,-5.8168,0,-5.8431,-5.8434,-5.8437,-5.8428,-5.8424,-5.8421,-5.8417,-5.8692,-5.8702,-5.8713,0,0,0,0,0,0,0,0,0,0,0,0,0,-5.7651,-5.766,-5.8164,-5.8168,-5.8171,-5.8431,-5.8434,-5.8438,-5.8429,-5.8424,-5.842,-5.8416,-5.8688,-5.8701,-5.8714,0,0,0,0,0,0,0,0,0,0,0,0,0,-5.7891,-5.7663,-5.8164,-5.8198,-5.8203,-5.843,-5.8435,-5.8439,-5.843,-5.8424,-5.8419,-5.8413,-5.8684,-5.87,-5.8716,-5.8926,0,0,-5.8765,-5.8772,0,0,0,0,0,0,0,0,-5.7878,-5.791,-5.819,-5.8196,-5.8203,-5.8391,-5.8354,-5.8603,-5.8431,-5.8344,-5.8417,-5.8411,-5.8596,-5.8619,-5.8681,-5.8939,-5.8951,-5.8766,-5.8776,-5.8783,-5.8788,0,0,0,0,0,0,0,-5.7861,-5.7899,-5.827,-5.8194,-5.8202,-5.8201,-5.8229,-5.8401,-5.8498,-5.8351,-5.8351,-5.8383,-5.8599,-5.8666,-5.8688,-5.8955,-5.8766,-5.878,-5.879,-5.8797,-5.9403,-5.9409,0,0,0,0,0,0,-5.7837,-5.7885,-5.8262,-5.8278,-5.8023,-5.8215,-5.8246,-5.8336,-5.8496,-5.8515,-5.8387,-5.8381,-5.8641,-5.8669,-5.8697,-5.8958,-5.8783,-5.8798,-5.8807,-5.9397,-5.9404,-5.9411,0,0,0,0,0,0,-5.7826,-5.787,-5.8251,-5.8082,-5.813,-5.8229,-5.8331,-5.8344,-5.8411,-5.8523,-5.8541,-5.8438,-5.8638,-5.8675,-5.887,-5.8967,-5.8805,-5.882,-5.9389,-5.9399,-5.9408,-5.9478,0,0,0,0,0,0,-5.7811,-5.7867,-5.7947,-5.8084,-5.8139,-5.8419,-5.8336,-5.8353,-5.8439,-5.8434,-5.8576,-5.8594,-5.8636,-5.8846,-5.8886,-5.8986,-5.8833,-5.9381,-5.9393,-5.9405,-5.9468,-5.9489,-5.9507,0,0,0,0,0,-5.7793,-5.7956,-5.7951,-5.7996,-5.8241,-5.8424,-5.8456,-5.8501,-5.8447,-5.8529,-5.8602,-5.8589,-5.8949,-5.8866,-5.8911,-5.9018,-5.9375,-5.939,-5.9404,-5.9459,-5.9485,-5.9507,0,0,0,0,0,0,-5.7828,-5.7974,-5.7971,-5.8182,-5.8291,-5.8422,-5.8527,-5.8527,-5.8654,-5.8644,-5.8695,-5.8727,-5.8924,-5.899,-5.8895,-5.9232,-5.9155,-5.918,-5.9182,-5.9207,-5.9227,-5.9208,-5.8846,0,0,0,0,0,-5.786,-5.7996,-5.8116,-5.8291,-5.8346,-5.8428,-5.8509,-5.8534,-5.8649,-5.8695,-5.8782,-5.8894,-5.9033,-5.9123,-5.9257,-5.9476,-5.9509,-5.9572,-5.9591,-5.9607,-5.9628,-5.9753,-5.9783,-5.9459,-5.9459,-5.9458,0,0,-5.7929,-5.8025,-5.8107,-5.8301,-5.8388,-5.8529,-5.8466,-5.8617,-5.8723,-5.8718,-5.8909,-5.8976,-5.9105,-5.9315,-5.9411,-5.9376,-5.9725,-5.9626,-5.9637,-5.965,-5.9771,-5.9801,-5.9829,-5.9469,-5.9467,-5.9465,0,0,-5.8126,-5.8211,-5.8368,-5.8457,-5.859,-5.8643,-5.8681,-5.8813,-5.8858,-5.905,-5.9051,-5.9177,-5.9414,-5.9507,-5.9585,-5.982,-5.9814,-5.9861,-5.9966,-6.0086,-6.0112,-6.0135,-6.0222,-6.0252,-5.9882,-5.9882,-5.9882,0,-5.8194,-5.8406,-5.8449,-5.8602,-5.8688,-5.869,-5.8851,-5.8935,-5.9105,-5.9166,-5.9123,-5.9423,-5.951,-5.9743,-5.98,-5.9862,-5.9909,-5.9847,-6.0104,-6.0128,-6.015,-6.0234,-6.0266,-5.9887,-5.9886,-5.9886,-5.9885,0,-5.8485,-5.8631,-5.8742,-5.8907,-5.9006,-5.9161,-5.923,-5.9325,-5.9342,-5.94,-5.9597,-5.9701,-5.9858,-5.9914,-5.9932,-6.0151,-6.0125,-6.0093,-6.0018,-6.0186,-6.0265,-6.0297,-5.9894,-5.9892,-5.9891,-5.989,0,0,-5.8712,-5.89,-5.894,-5.9017,-5.9164,-5.9279,-5.9435,-5.9588,-5.967,-5.9787,-5.9922,-6.0123,-6.0095,-6.0184,-6.0212,-6.0318,-6.0501,-6.0274,-6.0277,-6.0315,-6.0752,-6.0777,-6.0813,-6.0497,-6.0503,-6.0508,-6.0742,0,-5.8927,-5.9205,-5.925,-5.9495,-5.9633,-5.9637,-5.9774,-5.9881,-5.9939,-6.0066,-6.013,-6.0274,-6.0224,-6.0279,-6.0383,-6.0456,-6.059,-6.044,-6.0625,-6.0631,-6.0596,-6.0854,-6.0881,-6.1097,-6.0773,-6.0778,-6.0782,0,-5.9215,-5.9341,-5.96,-5.9731,-5.9791,-5.9913,-6.0058,-6.0178,-6.0299,-6.0335,-6.0435,-6.0451,-6.0616,-6.0531,-6.076,-6.0658,-6.0736,-6.0783,-6.0793,-6.0814,-6.0719,-6.0886,-6.1167,-6.12,-6.0831,-6.0827,-6.0823,0,-5.936,-5.9593,-5.9779,-5.9844,-6.0,-6.0087,-6.0156,-6.0272,-6.0362,-6.0489,-6.0548,-6.0692,-6.0772,-6.0884,-6.0939,-6.0872,-6.1166,-6.1085,-6.1202,-6.1201,-6.1266,-6.1262,-6.1567,-6.1311,-6.1311,-6.131,-6.1309,0,-5.9597,-5.9756,-5.9847,-5.9961,-6.014,-6.019,-6.0366,-6.0434,-6.0537,-6.0666,-6.0678,-6.0799,-6.0864,-6.0995,-6.1039,-6.1224,-6.1259,-6.1294,-6.1304,-6.1295,-6.1291,-6.1349,-6.1337,-6.1319,-6.1317,-6.1315,-6.1313,0,-5.9789,-5.9856,-6.0059,-6.0192,-6.0229,-6.0355,-6.0469,-6.0582,-6.0639,-6.0803,-6.0844,-6.0936,-6.1091,-6.1157,-6.1347,-6.1377,-6.159,-6.1588,-6.155,-6.1554,-6.1669,-6.1658,-6.2024,-6.2076,-6.1783,-6.1785,-6.1788,0,-5.9937,-6.006,-6.0206,-6.0293,-6.0366,-6.0506,-6.0598,-6.0652,-6.0748,-6.0896,-6.0992,-6.1147,-6.1274,-6.1522,-6.1607,-6.1753,-6.1756,-6.1875,-6.1779,-6.1766,-6.1763,-6.1756,-6.177,-6.1893,-6.1896,-6.1898,-6.19,0,-6.0195,-6.0222,-6.0354,-6.05,-6.0609,-6.0726,-6.084,-6.0911,-6.0983,-6.109,-6.125,-6.1348,-6.1544,-6.1699,-6.1851,-6.1923,-6.1926,-6.1929,-6.1965,-6.1958,-6.1933,-6.1952,-6.1601,-6.1921,-6.1919,-6.1918,-6.1917,-6.1916,-6.0372,-6.0483,-6.0604,-6.0751,-6.0843,-6.0949,-6.1063,-6.1135,-6.1269,-6.1432,-6.1456,-6.1627,-6.1747,-6.1951,-6.203,-6.2165,-6.2136,-6.2186,-6.22,-6.2212,-6.2222,-6.1908,-6.2193,-6.2192,-6.2192,-6.2191,-6.2191,0,-6.0634,-6.0712,-6.0847,-6.1007,-6.1123,-6.1114,-6.124,-6.1339,-6.1489,-6.1601,-6.1726,-6.1911,-6.2062,-6.2158,-6.2311,-6.2401,-6.2406,-6.244,-6.2435,-6.2453,-6.2237,-6.2193,-6.2433,-6.2433,-6.2433,-6.2433,-6.2433,-6.2433,-6.0783,-6.0971,-6.1013,-6.1247,-6.1324,-6.1492,-6.1565,-6.1665,-6.1754,-6.196,-6.2085,-6.2147,-6.2254,-6.2415,-6.2553,-6.2578,-6.2635,-6.2671,-6.2694,-6.2492,-6.2467,-6.2443,-6.2402,-6.2682,-6.2683,-6.2899,-6.2901,-6.2902]}]]